Weather History for Kansas City International, MO

Change the Weather History Date:

Sunday, March 24, 2013

  Actual Average Record
Temperature  
Mean Temperature 28 °F 47 °F  
Max Temperature 31 °F 58 °F 87 °F (1929)
Min Temperature 24 °F 36 °F 13 °F (1965)
Degree Days  
Heating Degree Days 37 18  
Month to date heating degree days 687 530  
Since 1 July heating degree days 4419 4575  
Cooling Degree Days 0 0  
Month to date cooling degree days 0 0  
Year to date cooling degree days 0 0  
Moisture  
Dew Point 23 °F    
Average Humidity 78    
Maximum Humidity 92    
Minimum Humidity 63    
Precipitation  
Precipitation 0.22 in 0.08 in 2.06 in (1904)
Month to date precipitation 1.94 1.73  
Year to date precipitation 4.83 4.26  
Snow  
Snow 3.90 in 0.10 in 4.00 in (1978)
Month to date snowfall 6.0 1.7  
Since 1 July snowfall 31.2 17.9  
Snow Depth 5.00 in    
Sea Level Pressure  
Sea Level Pressure 29.94 in    
Wind  
Wind Speed 18 mph (NNW)    
Max Wind Speed 28 mph    
Max Gust Speed 33 mph    
Visibility 4 miles    
Events Fog , Snow    
T = Trace of Precipitation, MM = Missing Value Source: NWS Daily Summary

Daily Weather History Graph

Daily Weather History Graph

Search for Another Location

Airport:

Trip Planner

Search our weather history database for the weather conditions in past years. The results will help you decide how hot, cold, wet, or windy it might be!

Date:

Astronomy

Mar. 24, 2013 Rise Set
Actual Time 7:15 AM CDT 7:35 PM CDT
Civil Twilight 6:48 AM CDT 8:02 PM CDT
Nautical Twilight 6:17 AM CDT 8:33 PM CDT
Astronomical Twilight 5:45 AM CDT 9:05 PM CDT
Moon 5:05 PM CDT (3/24) 5:25 AM CDT (3/24)
Length of Visible Light 13h 13m
Length of Day
12h 19m
Waxing Gibbous, 92% of the Moon is Illuminated
Mar 24
Waxing Gibbous
Mar 27
Full
Apr 2
Last Quarter
Apr 10
New
Apr 18
First Quarter

Hourly Weather History & Observations

Time (CDT) Temp. Windchill Dew Point Humidity Pressure Visibility Wind Dir Wind Speed Gust Speed Precip Events Conditions
12:16 AM 30.2 °F 17.4 °F 28.4 °F 93% 29.88 in 3.0 mi NNE 20.7 mph 29.9 mph 0.00 in Snow Light Snow
12:53 AM 30.9 °F 19.4 °F 28.0 °F 89% 29.95 in 5.0 mi North 17.3 mph - 0.00 in Snow Light Snow
1:30 AM 30.2 °F 17.4 °F 28.4 °F 93% 29.88 in 2.0 mi NNE 20.7 mph - 0.01 in Snow Light Snow
1:53 AM 30.9 °F 18.7 °F 28.0 °F 89% 29.89 in 1.5 mi NNE 19.6 mph - 0.02 in Snow Light Snow
2:53 AM 30.9 °F 17.8 °F 28.0 °F 89% 29.87 in 1.5 mi NNE 23.0 mph - 0.01 in Snow Light Snow
3:53 AM 30.0 °F 17.2 °F 27.0 °F 88% 29.87 in 1.0 mi North 20.7 mph - 0.02 in Snow Light Snow
4:07 AM 30.2 °F 17.1 °F 26.6 °F 86% 29.83 in 0.8 mi North 21.9 mph - 0.01 in Snow Light Snow
4:26 AM 30.2 °F 17.4 °F 26.6 °F 86% 29.83 in 0.5 mi North 20.7 mph 28.8 mph 0.01 in Fog , Snow Snow
4:53 AM 28.9 °F 15.8 °F 27.0 °F 92% 29.86 in 0.5 mi North 20.7 mph - 0.04 in Fog , Snow Snow
5:31 AM 28.4 °F 14.4 °F 26.6 °F 93% 29.85 in 1.0 mi North 23.0 mph 31.1 mph 0.02 in Snow Light Snow
5:53 AM 28.0 °F 13.9 °F 25.0 °F 88% 29.88 in 0.8 mi North 23.0 mph 29.9 mph 0.03 in Snow Light Snow
6:32 AM 28.4 °F 14.4 °F 24.8 °F 86% 29.87 in 1.0 mi North 23.0 mph 29.9 mph 0.03 in Snow Light Snow
6:53 AM 28.0 °F 13.9 °F 25.0 °F 88% 29.90 in 1.0 mi North 23.0 mph 31.1 mph 0.03 in Snow Light Snow
7:33 AM 28.4 °F 14.4 °F 24.8 °F 86% 29.88 in 0.5 mi North 23.0 mph 28.8 mph 0.02 in Fog , Snow Light Snow
7:53 AM 28.0 °F 14.6 °F 25.0 °F 88% 29.91 in 0.5 mi North 20.7 mph 28.8 mph 0.03 in Fog , Snow Light Snow
8:10 AM 28.4 °F 15.4 °F 24.8 °F 86% 29.89 in 0.5 mi North 19.6 mph 29.9 mph 0.00 in Fog , Snow Light Snow
8:23 AM 28.4 °F 14.7 °F 24.8 °F 86% 29.90 in 0.8 mi North 21.9 mph 29.9 mph 0.00 in Snow Light Snow
8:53 AM 27.0 °F 14.7 °F 24.1 °F 89% 29.93 in 0.8 mi NNW 16.1 mph 27.6 mph 0.01 in Snow Light Snow
9:26 AM 26.6 °F 13.1 °F 23.0 °F 86% 29.90 in 0.5 mi NNW 19.6 mph - 0.02 in Fog , Snow Light Snow
9:53 AM 27.0 °F 13.9 °F 23.0 °F 85% 29.94 in 0.8 mi NNW 18.4 mph 27.6 mph 0.02 in Snow Light Snow
9:58 AM 26.6 °F 13.1 °F 23.0 °F 86% 29.91 in 0.8 mi NNW 19.6 mph 27.6 mph 0.00 in Snow Light Snow
10:21 AM 26.6 °F 13.8 °F 23.0 °F 86% 29.92 in 0.8 mi NNW 17.3 mph - 0.01 in Snow Light Snow
10:29 AM 26.6 °F 14.3 °F 23.0 °F 86% 29.92 in 1.0 mi NNW 16.1 mph 24.2 mph 0.01 in Snow Light Snow
10:37 AM 26.6 °F 12.0 °F 23.0 °F 86% 29.92 in 1.0 mi NNW 23.0 mph 27.6 mph 0.01 in Snow Light Snow
10:53 AM 27.0 °F 13.5 °F 23.0 °F 85% 29.95 in 1.2 mi NNW 19.6 mph 28.8 mph 0.01 in Snow Light Snow
11:30 AM 26.6 °F 13.1 °F 23.0 °F 86% 29.92 in 1.8 mi NNW 19.6 mph 26.5 mph 0.00 in Snow Light Snow
11:48 AM 28.4 °F 15.1 °F 21.2 °F 74% 29.93 in 2.0 mi NNW 20.7 mph 26.5 mph 0.00 in Snow Light Snow
11:53 AM 28.0 °F 15.3 °F 21.9 °F 78% 29.96 in 2.0 mi NNW 18.4 mph 26.5 mph 0.00 in Snow Light Snow
12:44 PM 28.4 °F 16.6 °F 23.0 °F 80% 29.93 in 1.8 mi NNW 16.1 mph 26.5 mph 0.00 in Snow Light Snow
12:53 PM 28.0 °F 14.9 °F 23.0 °F 81% 29.96 in 1.5 mi NNW 19.6 mph 24.2 mph 0.00 in Snow Light Snow
1:25 PM 28.4 °F 15.1 °F 24.8 °F 86% 29.93 in 2.0 mi NW 20.7 mph 25.3 mph 0.00 in Snow Light Snow
1:42 PM 30.2 °F 18.1 °F 23.0 °F 75% 29.93 in 4.0 mi NNW 18.4 mph 29.9 mph N/A Snow Light Snow
1:53 PM 30.0 °F 19.1 °F 23.0 °F 75% 29.96 in 5.0 mi NW 15.0 mph 26.5 mph 0.00 in Snow Light Snow
2:53 PM 30.9 °F 18.1 °F 21.0 °F 67% 29.96 in 9.0 mi NW 21.9 mph 31.1 mph 0.00 in Snow Light Snow
3:30 PM 30.2 °F 18.9 °F 21.2 °F 69% 29.94 in 10.0 mi NW 16.1 mph 28.8 mph 0.00 in   Overcast
3:53 PM 30.0 °F 17.9 °F 21.0 °F 69% 29.98 in 8.0 mi NW 18.4 mph 25.3 mph 0.00 in   Overcast
4:53 PM 28.9 °F 16.5 °F 21.0 °F 72% 30.00 in 7.0 mi NW 18.4 mph 29.9 mph N/A   Overcast
5:53 PM 28.0 °F 16.5 °F 19.0 °F 69% 30.01 in 7.0 mi NW 15.0 mph 27.6 mph N/A   Overcast
6:53 PM 28.0 °F 15.3 °F 18.0 °F 66% 30.04 in 8.0 mi NW 18.4 mph 28.8 mph N/A   Overcast
7:53 PM 27.0 °F 14.3 °F 16.0 °F 63% 30.05 in 10.0 mi NW 17.3 mph 26.5 mph N/A   Overcast
8:53 PM 27.0 °F 13.9 °F 16.0 °F 63% 30.07 in 10.0 mi NW 18.4 mph 25.3 mph N/A   Overcast
9:21 PM 26.6 °F 14.7 °F 17.6 °F 69% 30.05 in 10.0 mi NW 15.0 mph - N/A   Overcast
9:53 PM 26.1 °F 14.5 °F 17.1 °F 69% 30.08 in 10.0 mi NW 13.8 mph 19.6 mph N/A   Overcast
10:53 PM 26.1 °F 14.0 °F 16.0 °F 66% 30.09 in 10.0 mi NW 15.0 mph - N/A   Overcast
11:53 PM 24.1 °F 12.5 °F 15.1 °F 69% 30.09 in 10.0 mi WNW 12.7 mph - N/A   Overcast